User: anonymous   Login
Location: Unspecified
(54.1780°N, 0.0000°E)
Time: 10:38:20
(UTC+00:00)
Language:

Transit 2A - Orbit

View from above orbital plane
View from above orbital plane
View from above satellite
View from above satellite

Ground track
Ground track

The orbit data is extracted from the following two-line orbital elements,

1    45U 60007A   19168.61684910 -.00000034 +00000-0 +18448-4 0  9999
2    45 066.6948 264.9351 0260878 223.1441 134.8956 14.33640840013393
Epoch (UTC): 17 June 2019 14:48:15
Eccentricity: 0.0260878
inclination: 66.6948°
perigee height: 593 km
apogee height: 966 km
right ascension of ascending node: 264.9351°
argument of perigee: 223.1441°
revolutions per day: 14.33640840
mean anomaly at epoch: 134.8956°
orbit number at epoch: 1339

The dashed part of the orbit path shows where the satellite is in the earth's shadow,  

DLR